Voltar ao catálogo

STARLINK-3083

AtivoComunicaçõesVLEO
NORAD 49158·PAYLOAD·🇺🇸 United States

Lançado Sep 14, 2021 de Vandenberg Space Force Base

Loading…

Próximas Passagens (próximas 24 horas)

TLE

AtualizadoSource: CelesTrak SupGP

Época: Sep 14, 2026, 14:46 UTC

1 49158C 21082AE  26257.61576389  .00392310  00000+0  58823-3 0  2570
2 49158  69.9498 354.4280 0007224 284.4563 271.0840 16.04223451    18

Acompanhe STARLINK-3083 em tempo real com AllMySat

Download on the App Store